sat.trackr.live / text

‹ back to catalog

ONEWEB-0563

NORAD 55800 · 2023-029E

PAYLOAD ACTIVE UNKNOWN

§ Identity

Operator
Country
UK
Launch date
2023-03-09
Launch site
AFETR
Launch vehicle
Mass (kg)
RCS (m²)

Purposes: comms

External: N2YO · Heavens-Above · Gunter

§ Orbital elements

Epoch: 2026-05-25T02:41:22.307136Z

Period
109.03 min
Inclination
87.9165°
Eccentricity
0.0001723
Mean motion
13.20770741 rev/d
Perigee alt
1,180.5 km
Apogee alt
1,183.1 km
Semi-major
7,559.9 km
B*
2.5923e-4
RAAN
279.0834°
Arg perigee
93.4399°
Mean anomaly
266.6931°
Rev number
15,809

§ Raw data

ONEWEB-05631 55800U 23029E   26145.11206374  .00000118  00000+0  25923-3 0  99992 55800  87.9165 279.0834 0001723  93.4399 266.6931 13.20770741158097

JSON: /api/v1/satellites/55800 · /tle

For live sub-satellite position, see the globe view (requires WebGL).

§ Visibility from observer

Set your observer location to see the next 7 days of passes ≥ 10°. The values pass through the URL so the page stays shareable.

No JS? Fill the form by hand. The geolocation button needs JavaScript.